Погода в Антонове

Украина / Киевская область     49°37′55″N   29°45′42″E
темп.,
°C
ветер,
м/с
пор.,
м/с
влажн.,
%
обл.,
%
осадки,
мм/ч
давл.,
гПа
погр.,
м
12 августа, пт
пт1200:00+18с3993100 2.3 1018204
03:00+17ссв379794 2.6 1018142
06:00+17с3897100 0.1 1018181
09:00+19св6988100 0.7 1018358
12:00+21св3880100 0.0 1018459
15:00+19всв5984100 0.1 1018338
18:00+20ссв41081100 0.0 1018376
21:00+18с4990100 0.3 1017216
13 августа, сб
сб1300:00+19ссв31093100 0.9 1016263
03:00+19ссв61294100 2.7 1015316
06:00+18ссв51094100 0.6 1014363
09:00+22св7127699 0.6 1013647
12:00+27всв685031 0.0 10121371
15:00+32в583334 0.0 10102545
18:00+31в873896 0.0 10091718
21:00+21ссв588487 3.6 1010174
14 августа, вс
вс1400:00+20ссв3787100 0.4 1010131
03:00+18ссв4989100 0.4 1009165
06:00+19св4985100 0.1 1009181
09:00+23в61458100 0.2 1009515
12:00+30вюв71034100 0.0 10091182
15:00+27юв6113987 0.0 1009742
18:00+29всв4738100 0.0 10081065
21:00+24св71554100 0.0 1009460
15 августа, пн
пн1500:00+24всв3650100 0.0 1008134
03:00+25св71439100 0.0 1008353
06:00+22св51354100 0.0 1008357
09:00+23всв61364100 0.6 1007613
12:00+30в893694 0.3 10071304
15:00+31в7831100 0.3 10062079
18:00+29в5735100 0.0 1006791
21:00+23в3356100 0.4 100734
16 августа, вт
вт1600:00+20ю2473100 0.4 100767
03:00+21ссз3368100 0.9 100634
06:00+19вюв3385100 0.2 100740
09:00+22юв4775100 0.6 1007356
12:00+26ю5648100 0.0 10081282
15:00+25ю675631 0.2 1008711
18:00+22св657427 2.3 1009353
21:00+18вюв379099 4.0 1009151